Retour au catalogue

STARLINK-32917

ActifCommunicationsVLEO
NORAD 62921·PAYLOAD·🇺🇸 United States

Lancé Feb 8, 2025 depuis Cape Canaveral Space Force Station

Loading…

Prochains Passages (prochaines 24 heures)

TLE

FraisSource: CelesTrak SupGP

Époque: Sep 15, 2026, 03:36 UTC

1 62921C 25027Q   26258.15048611  .00072127  00000+0  26124-2 0  2588
2 62921  43.0021 138.9553 0001442 279.1551 210.0627 15.27543191    14

Suivez STARLINK-32917 en temps réel avec AllMySat

Download on the App Store